Temperature
15 16 15 16 16 16 16 16 17 17 17 17 17 17 17 17 17 17 17 17 17 17 17 17 16 16 16 16 16 16 16 16 15 15 15 15 15 15 15 15 15 14 14
15 15 15 15 16 16 16 16 16 16 17 17 17 17 17 17 17 17 17 17 17 17 17 16 16 16 16 16 16 16 16 15 15 15 15 15 15 15 15 15 14 14 14
15 15 15 15 16 16 16 16 16 16 16 16 17 17 17 17 17 17 17 17 16 16 16 16 16 16 16 16 16 16 15 15 15 15 15 15 15 15 15 14 14 14 14
15 15 15 15 15 16 16 16 16 16 16 16 16 16 17 17 17 17 16 16 16 16 16 16 16 16 16 16 16 16 15 15 15 15 15 14 14 14 14 14 14 14 14
15 15 15 15 15 15 15 16 16 16 16 16 16 16 16 16 16 16 16 16 16 16 16 16 16 16 16 16 16 15 15 15 15 15 14 14 14 14 14 14 14 14 13
15 15 15 15 15 15 15 15 15 16 16 16 16 16 16 16 16 16 16 16 16 16 16 16 16 16 16 16 15 15 15 15 15 14 14 14 14 14 14 14 14 13 13
15 15 15 15 15 15 15 15 15 15 15 15 15 15 15 15 16 16 16 16 16 16 15 15 15 15 15 15 15 15 15 15 15 14 14 14 14 14 14 14 13 13 13
14 15 15 14 14 14 14 14 14 15 15 15 15 15 15 15 15 15 15 15 15 15 15 15 15 15 15 15 15 15 15 15 14 14 14 14 14 14 13 13 13 13 13
14 14 14 14 14 14 14 14 14 14 14 14 14 14 14 14 15 15 15 15 15 15 15 15 15 15 15 15 15 15 14 14 14 14 14 14 14 13 13 13 13 13 13
13 13 14 13 13 13 13 13 13 13 14 14 14 14 14 14 14 14 14 14 14 14 14 14 14 14 14 14 14 14 14 14 14 14 13 13 13 13 13 13 13 13 13
13 13 13 13 13 13 13 13 13 13 13 13 13 13 13 13 14 14 14 14 14 14 14 14 14 14 14 14 14 14 14 14 14 14 13 13 13 13 13 13 13 13 13
13 13 13 13 13 13 13 13 13 13 13 13 13 13 13 13 13 13 13 13 13 13 13 13 13 13 14 14 14 14 14 13 13 13 13 13 13 13 13 13 13 13 12
12 12 12 12 12 12 12 12 12 12 12 12 12 12 12 12 12 12 12 13 13 13 13 13 13 13 13 13 13 13 13 13 13 13 13 13 13 13 13 13 13 12 12
12 12 12 12 12 12 12 12 12 12 12 12 12 12 12 12 12 12 12 12 12 12 12 12 12 12 12 13 13 13 13 13 13 13 13 13 12 12 12 12 12 12 12
11 11 11 11 11 11 12 12 12 12 11 11 11 11 11 11 11 11 11 11 12 12 12 12 12 12 12 12 12 12 12 13 12 12 12 12 12 12 12 12 12 12 12
11 11 11 11 11 11 11 11 11 11 11 11 11 11 11 11 11 11 11 11 11 11 11 11 11 11 11 11 12 12 12 12 12 12 12 12 12 12 12 12 12 12 12
11 11 11 11 11 11 11 11 11 11 11 10 10 10 10 10 10 10 10 10 10 10 10 10 11 11 11 11 11 11 11 11 12 11 11 11 12 12 11 11 11 11 11
11 11 11 10 10 10 10 10 10 10 10 10 10 10 10 9 9 9 9 9 10 10 10 10 10 10 10 10 10 11 11 11 11 11 11 11 11 11 11 11 11 11 11
10 10 10 10 10 10 10 10 10 10 10 10 9 9 9 9 9 9 9 9 9 9 9 9 9 9 9 10 10 10 10 10 10 10 10 10 10 10 10 10 11 11 11
10 10 10 10 10 10 10 9 9 9 9 9 9 9 9 8 8 8 8 8 8 8 8 9 9 9 9 9 9 9 9 9 10 10 10 10 10 10 10 10 10 10 10
9 9 9 9 9 9 9 9 9 9 9 9 9 8 8 8 8 8 8 8 8 8 8 8 8 8 8 8 8 8 8 9 9 9 9 9 9 9 9 9 9 10 10
9 9 9 9 9 9 9 9 9 8 8 8 8 8 8 7 7 7 7 7 7 7 7 7 7 7 7 7 7 7 7 7 8 8 8 9 9 9 9 9 9 9 9
9 9 9 9 9 8 8 8 8 8 8 8 8 7 7 7 7 7 7 7 7 7 7 7 7 7 7 7 7 6 6 6 7 7 8 8 8 8 8 9 8 8 9
9 9 8 8 8 8 8 8 8 8 7 7 7 7 7 7 7 7 7 7 6 6 6 7 7 7 7 6 6 7 7 6 6 6 7 7 7 8 8 8 8 8 8
8 8 8 8 8 8 8 8 7 7 7 7 7 7 6 6 6 6 6 6 6 6 6 6 6 6 6 6 6 6 6 6 6 6 6 7 7 7 7 7 7 8 8
8 8 8 8 8 8 8 7 7 7 7 7 7 6 6 6 6 6 6 6 6 6 6 6 6 6 6 6 6 6 6 6 6 6 6 6 6 7 7 7 7 7 7
Wind_Speed
2 5 2 5 7 8 8 8 8 8 8 9 8 7 7 7 7 6 6 6 6 6 6 6 6 7 8 9 9 8 8 8 9 9 9 9 9 10 9 9 9 8 10
1 3 3 6 7 7 7 8 8 8 8 8 8 7 7 7 6 5 5 5 5 5 5 5 5 6 7 8 8 9 8 8 8 8 8 8 8 9 9 9 9 8 9
1 3 4 7 8 8 7 7 7 7 7 7 6 7 6 6 5 5 5 4 4 4 4 5 5 5 6 7 7 8 8 8 8 7 7 6 7 8 8 8 8 8 9
2 3 4 7 8 8 8 7 7 7 6 6 6 5 5 5 5 4 4 4 4 4 4 4 4 5 6 6 7 7 7 8 8 6 5 5 6 7 7 8 7 8 8
3 4 4 7 8 8 8 8 7 7 6 6 6 5 4 4 3 3 3 3 3 4 4 4 5 5 5 5 6 6 6 7 8 6 5 5 5 6 7 7 7 8 8
3 4 5 7 7 7 7 7 8 7 6 5 5 5 4 3 3 3 3 2 3 3 3 3 4 4 4 5 5 5 6 7 7 6 5 5 5 6 7 7 7 7 8
3 4 5 7 7 7 7 7 7 7 7 6 5 4 4 4 3 2 2 2 2 2 2 3 3 4 4 4 5 5 5 6 6 6 5 5 5 7 7 8 8 8 8
3 4 5 6 7 6 6 6 6 6 6 6 5 5 5 4 4 3 2 1 1 1 2 3 3 3 3 3 4 4 4 5 5 5 5 5 6 7 7 7 8 8 8
4 4 5 5 5 5 5 5 5 5 6 6 6 5 5 5 4 4 2 2 1 1 2 2 3 3 3 3 3 4 4 4 4 4 4 4 6 7 8 8 8 8 8
3 3 3 4 4 4 3 4 4 5 5 5 5 5 4 4 4 3 3 2 2 1 2 2 3 3 3 2 2 3 4 4 4 4 4 4 6 7 7 8 9 9 9
3 2 2 2 3 3 3 3 3 3 3 3 3 4 4 3 3 3 3 2 2 2 2 3 3 3 2 2 2 3 4 3 4 3 4 5 7 8 9 8 9 9 9
1 2 2 1 2 3 2 3 3 2 2 3 2 2 2 2 2 3 3 3 3 3 3 3 3 3 2 2 3 3 3 3 3 3 4 6 7 9 9 9 10 10 10
1 2 2 2 2 1 1 2 2 2 2 2 2 2 2 2 2 2 2 2 3 3 2 3 2 1 2 2 2 2 3 3 3 3 5 7 8 9 9 10 10 10 10
2 3 2 2 2 2 1 1 1 1 1 1 2 1 1 1 1 1 1 1 1 1 1 1 1 1 2 2 3 3 4 3 3 4 6 7 8 9 9 10 10 10 11
3 3 3 2 2 2 1 1 1 1 1 1 1 1 1 1 2 2 2 1 1 1 1 2 2 3 3 3 3 4 4 4 4 5 6 8 9 9 10 9 10 10 11
4 4 3 3 3 2 2 2 2 2 2 2 1 2 2 1 1 2 3 2 2 2 2 2 3 4 3 3 4 5 5 5 5 5 6 7 9 9 10 10 10 11 11
5 4 4 4 3 2 3 3 2 2 2 2 2 2 3 2 2 2 3 3 3 3 2 2 3 3 3 3 4 5 5 5 5 6 6 6 7 9 10 11 11 11 12
5 4 4 4 3 3 3 3 2 2 2 2 3 3 3 4 4 3 3 4 4 3 2 3 3 3 4 4 4 4 4 4 5 6 5 5 5 6 8 10 11 11 12
5 5 4 4 4 4 4 3 3 3 3 3 3 3 4 5 5 4 4 4 4 3 3 4 3 3 4 4 4 4 4 4 5 5 5 5 5 6 6 8 10 11 12
5 5 5 4 4 4 3 3 3 3 3 3 3 4 5 5 5 4 4 4 3 4 4 4 4 3 3 4 4 4 4 4 4 5 5 4 5 6 5 6 6 8 10
4 4 5 4 4 3 2 2 3 3 4 4 4 5 5 6 6 5 5 4 4 4 5 5 4 3 2 2 1 2 2 3 4 4 4 4 4 4 4 5 5 5 7
5 5 5 5 5 4 3 3 3 3 4 4 4 4 5 5 6 5 5 5 5 4 5 5 4 3 2 3 2 1 1 2 2 3 3 4 4 3 4 5 5 6 6
5 6 6 6 5 5 3 2 2 2 3 2 3 3 4 5 6 6 6 6 6 5 5 5 5 5 4 3 3 3 2 3 2 2 3 3 3 3 3 3 4 6 6
6 6 6 5 5 4 3 3 3 3 4 5 4 4 5 5 6 6 6 6 6 5 6 6 5 5 5 5 3 3 3 3 2 2 2 2 3 4 4 4 4 6 7
6 5 5 5 4 4 4 4 4 4 4 4 4 4 5 5 5 5 5 5 6 5 6 6 5 5 5 5 4 2 2 1 2 2 4 3 3 3 4 4 4 5 6
4 4 4 4 4 4 4 4 4 5 4 4 4 4 4 4 4 4 5 5 5 5 6 6 6 6 5 5 4 4 3 3 3 2 3 4 4 4 4 4 4 4 5
Wind_Direction
300 308 18 63 71 72 76 78 78 78 80 80 80 87 88 96 104 105 111 117 119 128 136 140 142 144 142 138 137 138 135 133 131 132 132 131 130 129 126 120 118 114 116
251 332 64 71 73 74 78 77 78 78 78 79 78 81 85 86 93 104 106 111 114 119 129 142 141 145 144 141 141 140 138 135 131 131 134 135 138 141 137 132 130 124 125
75 36 64 74 72 70 74 77 76 76 76 74 74 77 81 84 85 90 98 100 112 122 125 131 138 136 139 138 141 144 143 141 134 132 133 133 142 148 144 139 137 135 133
78 51 67 75 72 70 69 71 76 75 73 72 70 72 74 79 82 85 92 93 96 114 129 129 129 131 133 138 142 148 153 148 141 137 129 132 143 153 152 150 149 146 142
62 53 69 79 74 69 67 65 66 67 69 67 65 64 65 69 80 80 89 95 95 99 115 130 129 129 132 139 146 151 155 155 149 140 129 137 149 161 162 160 160 155 153
67 57 71 81 76 70 67 64 61 59 59 59 57 55 52 52 60 72 77 94 101 105 104 118 126 129 134 141 144 150 156 157 150 141 142 150 161 173 171 167 164 163 165
88 59 73 79 76 71 67 65 63 59 53 51 49 47 43 47 51 55 65 72 108 125 126 118 125 125 131 144 150 148 150 153 148 148 157 165 179 184 183 179 176 173 176
101 59 58 70 70 69 66 63 61 60 52 47 41 38 35 33 39 33 37 36 65 159 147 137 134 138 133 148 153 149 148 141 152 159 170 179 188 190 191 187 188 189 185
72 64 47 49 59 63 62 57 55 54 51 44 36 30 26 23 25 21 20 14 359 183 169 160 155 152 155 147 156 153 154 152 149 159 176 189 200 201 201 198 195 197 195
49 47 42 41 44 41 42 48 47 44 41 37 28 23 17 13 11 11 3 356 347 288 215 196 193 180 176 171 171 162 153 151 157 171 183 206 212 215 214 209 206 205 203
25 9 17 26 26 25 28 26 27 27 21 17 13 9 9 8 357 354 353 325 298 295 267 228 217 212 197 189 184 167 153 153 166 178 197 222 223 227 225 218 216 215 209
326 325 339 351 0 12 8 8 10 10 8 8 4 3 11 360 343 337 336 318 295 290 282 255 231 219 195 170 184 172 157 167 175 193 211 230 233 235 231 226 224 222 218
257 308 316 309 336 1 3 4 13 8 6 3 358 354 0 9 352 350 351 324 300 292 284 260 235 198 177 169 174 174 174 177 196 209 225 237 241 243 239 234 231 229 227
262 276 291 306 315 317 346 336 344 360 358 352 331 313 28 12 339 325 322 301 295 292 275 255 226 213 200 197 202 196 191 197 215 222 231 239 242 246 246 243 239 237 234
247 264 277 288 295 298 306 301 312 279 282 294 310 281 233 246 258 274 271 277 258 273 262 260 226 216 214 215 218 212 208 213 224 232 237 244 244 246 248 250 247 243 242
237 250 267 278 271 282 280 271 268 270 284 290 301 276 250 238 256 267 268 272 264 246 249 249 238 221 216 219 227 219 217 218 227 236 240 244 243 243 248 251 254 253 250
238 244 256 266 269 275 278 273 280 274 278 274 285 269 259 255 251 262 263 262 262 247 247 263 252 227 221 227 234 223 218 220 224 235 241 243 242 242 246 252 260 260 259
240 247 255 269 276 277 273 275 277 273 265 267 274 267 260 255 248 250 253 259 265 245 237 244 239 242 230 228 235 231 228 226 227 231 236 238 238 241 247 256 263 266 265
235 242 253 261 260 266 270 269 267 267 258 260 267 266 261 257 250 246 248 257 261 253 235 240 241 237 238 237 237 233 225 229 231 234 234 239 239 240 244 259 264 267 269
243 243 250 260 257 259 266 274 273 270 262 257 256 259 257 257 253 249 250 254 253 251 244 231 233 235 237 234 244 249 240 238 231 227 230 238 243 246 246 255 261 268 271
246 248 249 251 259 257 269 272 271 267 267 265 258 258 255 255 251 250 251 248 242 241 238 232 225 225 238 215 213 288 291 251 236 234 226 231 242 249 246 250 251 257 268
241 247 250 255 258 254 253 259 251 263 263 259 258 262 259 255 249 250 237 239 239 242 239 232 217 215 234 198 174 164 298 304 268 239 234 234 245 248 248 256 252 253 257
253 249 253 258 257 258 261 282 302 300 296 278 278 270 260 261 254 247 240 237 237 233 233 229 217 209 222 217 190 171 190 234 292 267 239 237 241 248 252 257 256 257 259
252 255 253 254 256 259 251 251 261 271 278 278 274 271 272 264 259 254 244 237 238 237 232 228 224 216 210 213 212 208 204 194 203 285 295 264 254 255 256 266 258 260 257
251 253 256 258 263 262 254 241 241 259 268 280 285 279 276 266 258 257 250 237 236 240 234 228 228 222 211 207 206 199 205 225 208 214 269 287 287 254 252 257 254 259 260
262 263 261 261 271 274 260 249 240 248 261 275 286 279 280 276 264 255 248 237 238 240 235 230 226 220 212 203 203 200 196 205 209 210 243 265 282 281 270 258 256 260 265
Height
1499 1499 1500 1501 1502 1503 1503 1504 1504 1505 1506 1506 1507 1508 1508 1509 1510 1510 1511 1511 1512 1512 1513 1513 1514 1515 1515 1516 1517 1518 1518 1519 1520 1520 1520 1521 1521 1522 1522 1523 1523 1524 1524
1498 1499 1500 1501 1501 1502 1503 1504 1504 1505 1505 1506 1507 1507 1508 1508 1509 1509 1510 1510 1511 1511 1512 1513 1513 1514 1515 1516 1517 1517 1518 1519 1520 1520 1520 1521 1521 1522 1522 1523 1523 1524 1524
1498 1499 1499 1500 1501 1502 1502 1503 1504 1504 1505 1505 1506 1506 1507 1507 1508 1508 1509 1509 1510 1510 1511 1512 1513 1513 1514 1515 1516 1517 1517 1518 1519 1519 1520 1521 1521 1522 1522 1523 1523 1523 1524
1498 1498 1499 1500 1501 1501 1502 1502 1503 1503 1504 1504 1505 1505 1506 1506 1507 1507 1507 1508 1509 1509 1510 1511 1511 1512 1513 1514 1515 1516 1516 1517 1518 1519 1519 1520 1521 1521 1522 1522 1522 1523 1523
1497 1498 1499 1499 1500 1500 1501 1501 1501 1502 1502 1503 1503 1504 1504 1505 1505 1505 1506 1506 1507 1508 1508 1509 1510 1511 1512 1513 1513 1514 1515 1516 1517 1517 1518 1519 1520 1521 1521 1521 1522 1522 1522
1497 1498 1498 1499 1499 1499 1500 1500 1500 1500 1500 1501 1501 1502 1502 1503 1503 1503 1504 1504 1505 1506 1507 1507 1508 1509 1510 1511 1512 1513 1513 1514 1515 1516 1517 1518 1519 1519 1520 1520 1521 1521 1521
1496 1497 1497 1498 1498 1498 1498 1498 1498 1499 1499 1499 1499 1500 1500 1500 1500 1501 1501 1502 1503 1503 1504 1505 1506 1507 1508 1509 1510 1510 1511 1512 1513 1514 1515 1516 1517 1518 1518 1519 1520 1520 1520
1496 1496 1496 1497 1497 1497 1497 1497 1497 1497 1497 1497 1497 1497 1498 1498 1498 1499 1499 1499 1500 1501 1502 1503 1504 1505 1506 1506 1507 1508 1509 1510 1511 1512 1513 1514 1515 1516 1517 1517 1518 1518 1519
1495 1495 1495 1495 1495 1495 1495 1495 1495 1495 1495 1495 1495 1495 1495 1495 1495 1496 1496 1497 1497 1498 1499 1500 1501 1502 1503 1504 1505 1505 1507 1508 1509 1510 1511 1512 1513 1514 1515 1515 1516 1516 1517
1494 1494 1494 1494 1494 1494 1493 1493 1493 1493 1492 1492 1492 1493 1493 1493 1493 1493 1493 1494 1495 1495 1496 1497 1498 1499 1500 1501 1502 1503 1504 1505 1506 1507 1508 1509 1510 1511 1512 1513 1513 1514 1515
1493 1493 1493 1493 1492 1492 1492 1491 1491 1490 1490 1490 1490 1490 1490 1490 1490 1490 1490 1491 1492 1492 1493 1494 1495 1496 1497 1498 1499 1500 1501 1502 1503 1504 1505 1506 1508 1508 1509 1510 1511 1511 1512
1491 1491 1491 1491 1490 1490 1489 1489 1488 1488 1487 1487 1487 1487 1486 1487 1487 1487 1487 1488 1488 1489 1490 1490 1491 1492 1493 1494 1495 1496 1497 1498 1499 1501 1502 1503 1504 1505 1506 1507 1508 1508 1509
1489 1489 1489 1489 1488 1488 1487 1486 1485 1485 1484 1484 1484 1483 1483 1483 1483 1483 1484 1484 1485 1485 1486 1486 1487 1488 1489 1490 1491 1492 1494 1495 1496 1497 1498 1500 1501 1502 1503 1503 1504 1505 1506
1487 1487 1487 1487 1486 1485 1484 1483 1483 1482 1481 1481 1480 1480 1479 1479 1479 1479 1480 1480 1481 1481 1482 1482 1483 1484 1485 1486 1487 1488 1490 1491 1492 1493 1494 1496 1497 1498 1499 1499 1500 1501 1502
1485 1485 1484 1484 1483 1482 1481 1480 1479 1479 1478 1477 1477 1476 1476 1475 1475 1475 1475 1476 1476 1477 1478 1478 1479 1480 1481 1482 1483 1484 1485 1487 1488 1489 1490 1492 1493 1494 1495 1495 1496 1497 1497
1482 1481 1481 1481 1480 1479 1478 1477 1476 1475 1474 1474 1473 1472 1472 1472 1471 1471 1471 1471 1472 1473 1473 1474 1475 1475 1476 1477 1478 1480 1481 1482 1483 1484 1486 1487 1488 1489 1490 1491 1492 1492 1493
1478 1478 1478 1477 1476 1475 1474 1473 1472 1471 1470 1470 1469 1469 1468 1468 1467 1467 1467 1467 1467 1468 1469 1470 1470 1471 1472 1473 1474 1475 1476 1477 1478 1480 1481 1482 1484 1485 1486 1487 1487 1488 1488
1475 1474 1474 1473 1472 1471 1470 1469 1468 1467 1467 1466 1465 1465 1464 1464 1463 1463 1462 1462 1463 1464 1464 1465 1465 1466 1467 1468 1469 1470 1471 1472 1474 1475 1476 1477 1479 1480 1481 1482 1483 1483 1484
1471 1470 1470 1469 1468 1467 1466 1465 1464 1463 1462 1462 1461 1460 1460 1459 1459 1458 1458 1458 1459 1459 1459 1460 1460 1461 1462 1463 1464 1465 1466 1467 1469 1470 1471 1473 1474 1475 1476 1477 1478 1479 1479
1467 1466 1466 1465 1464 1463 1462 1461 1460 1459 1458 1457 1456 1456 1455 1455 1454 1454 1454 1454 1454 1454 1454 1455 1456 1457 1458 1459 1459 1460 1460 1462 1463 1465 1466 1468 1470 1471 1471 1472 1473 1473 1474
1463 1462 1461 1460 1459 1459 1457 1456 1455 1453 1453 1452 1451 1451 1450 1450 1450 1449 1449 1449 1450 1449 1450 1451 1451 1452 1453 1454 1455 1455 1455 1457 1458 1460 1461 1463 1465 1466 1467 1468 1468 1468 1469
1458 1457 1457 1456 1455 1454 1453 1452 1451 1450 1448 1447 1447 1446 1446 1445 1445 1445 1444 1444 1445 1445 1445 1446 1447 1447 1448 1450 1450 1451 1451 1452 1452 1455 1456 1458 1460 1461 1462 1463 1464 1464 1464
1453 1453 1453 1452 1451 1450 1449 1448 1447 1446 1445 1443 1442 1441 1441 1440 1440 1440 1440 1440 1440 1440 1440 1441 1442 1443 1443 1445 1447 1448 1449 1447 1447 1449 1451 1453 1455 1456 1457 1458 1458 1459 1459
1449 1449 1449 1448 1447 1446 1445 1444 1442 1441 1439 1438 1437 1436 1436 1436 1435 1435 1435 1435 1435 1435 1435 1436 1437 1438 1440 1440 1442 1443 1445 1445 1445 1444 1446 1448 1450 1450 1452 1453 1453 1453 1453
1446 1445 1445 1444 1443 1442 1441 1440 1438 1437 1436 1434 1433 1432 1431 1431 1431 1431 1431 1431 1431 1431 1431 1431 1432 1434 1435 1436 1437 1438 1440 1441 1442 1442 1441 1442 1443 1445 1447 1447 1447 1447 1447
1441 1441 1440 1439 1438 1438 1437 1436 1434 1433 1431 1430 1429 1428 1427 1427 1426 1426 1426 1426 1426 1426 1426 1427 1428 1429 1431 1432 1433 1434 1436 1437 1437 1438 1437 1437 1438 1439 1441 1441 1442 1441 1442